{"data":{"norad_id":68898,"epoch":"2026-09-20T00:06:19.830816Z","epoch_age_seconds":58017,"freshness":"FRESH","line1":"1 68898U 26097D   26263.00439619  .00010617  00000+0  33071-3 0  9995","line2":"2 68898  97.2901  97.1177 0000652  67.4471 292.6841 15.33446783 22014","mean_motion":15.33446783,"eccentricity":6.52e-5,"inclination_deg":97.2901,"raan_deg":97.1177,"arg_perigee_deg":67.4471,"mean_anomaly_deg":292.6841,"bstar":0.00033071,"rev_number":2201,"period_min":93.906095468329,"perigee_km":465.09166192823,"apogee_km":465.98407713121,"semimajor_km":6843.6748695297,"source":"CELESTRAK","updated_at":"2026-09-20T09:00:44.046127Z"}}